www.pogodaiklimat.ru

Погода и климат >> Архив погоды >> Россия >> Курганская область >> Курган


АРХИВ ПОГОДЫ в Кургане

Время (UTC), дата Ветер
(напр.,м/с)
 
Видим.   Явления Облачность Т
(С)
Тd
(С)
f
(%)
Тe
(С)
Тes
(С)
Комфортность P
(гПа)
Po
(гПа)
Тmin
(С)
Tmax
(С)
R
(мм)
R24
(мм)
S
(см)
09 13.04 С 4 20 км 10/4 600 м
[Sc diur, vesp Ac trans Ci fib]
+8.5 +1.2 60 +6 +8 по сезону 1017.7 1008.6
12 13.04 С 3 20 км 8/0
[Ac trans Ci fib]
+11.0 +1.1 50 +10 +11 тепло 1017.4 1008.4
15 13.04 С 1 10 км 10/0
[Ac trans Ci sp]
+5.3 -2.0 59 +5 +5 по сезону 1018.3 1009.1 +11.5
18 13.04 СЗ 1 10 км 10/0
[Ac trans Ci fib]
+3.4 -1.5 70 +2 +2 по сезону 1018.8 1009.6
21 13.04 С 1 10 км 10/0
[Ac trans Ci fib]
+2.2 -1.7 75 +1 +1 по сезону 1018.9 1009.6
00 14.04 СВ 3 10 км 10/0
[Ac und]
+3.6 -0.7 73 0 0 по сезону 1019.2 1010.0
03 14.04 С 4 4000 м слаб. ливневой дождь со снегом 10/8 300 м
[Cb cap Ac und]
+0.1 -0.9 93 -5 -5 прохладно 1020.9 1011.5 +0.1 0.7
06 14.04 С 4 10 км слаб. ливневой дождь со снегом 10/8 600 м
[Cb cap Ac und]
-0.6 -1.6 93 -6 -6 очень
холодно
1022.6 1013.2 -0.6
09 14.04 С 4
{11}
10 км слаб. ливневой дождь со снегом 10/5 1000 м
[Cb cap Ac und]
-0.8 -2.5 88 -6 -5 очень
холодно
1023.6 1014.2
12 14.04 СВ 3 20 км {ливн. осадки} 8/0
[Ac trans]
+1.4 -6.5 56 -2 -1 очень
холодно
1023.1 1013.8
15 14.04 СВ 2 10 км 6/0
[Ac trans]
+0.4 -8.7 50 -2 -2 прохладно 1023.1 1013.7 +2.3 2
18 14.04 С 3 10 км ясно -3.8 -10.7 59 -9 -9 очень
холодно
1023.3 1013.8
21 14.04 С 2 10 км ясно -7.5 -11.2 75 -12 -12 очень
холодно
1022.9 1013.2
00 15.04 С 2 10 км ясно -9.4 -12.2 80 -14 -14 очень
холодно
1022.8 1013.0
03 15.04 С 2 50 км ясно -4.5 -9.6 68 -8 -6 очень
холодно
1022.1 1012.5 -9.6
06 15.04 С 3 50 км ясно +0.4 -11.1 42 -3 +5 холодно 1020.7 1011.3
09 15.04 СЗ 2 50 км ясно +3.3 -14.6 26 +1 +12 опасность
простуды
1018.9 1009.6
12 15.04 СЗ 2 50 км 4/0
[Ci fib]
+5.1 -16.4 19 +4 +7 прохладно 1016.6 1007.5
15 15.04 З 1 10 км ясно +2.3 -16.7 23 +2 +2 по сезону 1015.2 1005.9 +5.7
18 15.04 Ю 1 10 км ясно -1.9 -10.5 52 -3 -3 прохладно 1014.3 1004.9
21 15.04 Ю 2 10 км ясно -3.1 -10.3 58 -7 -7 прохладно 1012.5 1003.1
00 16.04 Ю 2 10 км 3/0
[Ci fib]
-4.1 -8.7 70 -8 -8 прохладно 1010.9 1001.4
03 16.04 Ю 2 50 км 8/0
[Ac trans Ci fib]
+0.9 -6.7 57 -2 -0 по сезону 1009.3 1000.1 -4.1
06 16.04 ЮЗ 3
{10}
50 км 10/10 1000 м
[Sc]
+5.4 -6.3 43 +3 +3 по сезону 1007.2 998.1
09 16.04 ЮЗ 4
{10}
50 км 10/10 1000 м
[Sc]
+6.1 -4.9 45 +3 +3 прохладно 1006.3 997.2
12 16.04 З 3
{10}
50 км 10/10 1000 м
[Cb cap]
+6.0 -2.6 54 +3 +3 прохладно 1005.3 996.3
15 16.04 С 1
{12}
10 км в посл. час ливневой снег 10/10 600 м
[Cb cap]
+0.8 -0.5 91 -1 -1 прохладно 1006.1 996.9 +6.9 2
18 16.04 СЗ 2 1000 м ливневой дождь со снегом 10/10 600 м
[Cb cap]
0.0 -1.0 93 -4 -4 прохладно 1006.2 996.9
21 16.04 С 6-11
{11}
4000 м слаб. ливневой снег 10/8 1000 м
[Cb cap Ac und]
-2.4 -4.0 89 -10 -10 очень
холодно
1008.2 998.9
00 17.04 С 6-12
{12}
4000 м слаб. снег 10/0
[As op]
-5.1 -6.7 89 -13 -13 очень
холодно
1010.8 1001.3
03 17.04 С 5
{12}
1000 м сильн. снег {метель} 10/0
[As op]
-6.2 -7.9 88 -14 -13 очень
холодно
1013.5 1004.0 -6.2 3 4
06 17.04 СЗ 6-10
{12}
20 км {снег, метель} 8/8 1000 м
[Sc]
-5.6 -14.0 52 -13 -12 очень
холодно
1015.7 1006.2
09 17.04 СЗ 6-12
{12}
20 км {ливн. осадки, метель} 10/8 600 м
[Cb cap Ac und]
-6.3 -12.6 61 -14 -14 очень
холодно
1018.4 1008.8
12 17.04 СЗ 6-10
{13}
10 км слаб. ливневой снег {метель} 10/6 600 м
[Cb cap Ac trans Ci fib]
-5.2 -11.2 63 -13 -12 очень
холодно
1020.4 1010.8
15 17.04 СЗ 2
{11}
10 км {ливн. осадки} 3/0
[Ac trans]
-5.5 -12.0 60 -9 -9 очень
холодно
1022.6 1013.0 -4.6 0.0
18 17.04 СЗ 2 10 км {ливн. осадки} ясно -6.5 -14.2 54 -10 -10 очень
холодно
1024.9 1015.3
21 17.04 З 4 10 км ясно -7.5 -14.9 55 -14 -14 очень
холодно
1026.5 1016.8
00 18.04 З 2 10 км ясно -8.6 -14.6 62 -13 -13 очень
холодно
1028.3 1018.5
03 18.04 З 1 50 км ясно -4.9 -13.6 50 -7 -3 очень
холодно
1029.5 1019.8 -9.0 1
06 18.04 Ю 3 50 км 3/0
[Ci]
-0.3 -11.5 43 -4 +4 очень
холодно
1029.3 1019.9
09 18.04 ЮЗ 4 50 км 6/0
[Ci fib]
+3.5 -13.4 28 0 +6 холодно 1029.1 1019.7
12 18.04 З 3 50 км 3/0
[Ci fib]
+4.6 -15.0 23 +2 +5 холодно 1028.4 1019.1
15 18.04 СЗ 1 20 км ясно +1.5 -14.2 30 +1 +1 прохладно 1028.0 1018.6 +4.7
18 18.04 ЮВ 1 10 км ясно -3.0 -9.0 63 -5 -5 холодно 1028.6 1019.0
21 18.04 Ю 1 10 км ясно -5.0 -8.5 76 -7 -7 холодно 1027.8 1018.2
00 19.04 штиль 0 10 км ясно -6.9 -9.0 85 -8 -8 холодно 1026.8 1017.1
03 19.04 Ю 1 50 км 3/0
[Ac trans]
-1.5 -8.4 59 -3 -0 прохладно 1025.8 1016.3 -6.9
06 19.04 С 2 50 км 3/0
[Ci]
+5.1 -14.1 23 +4 +13 опасность
простуды
1023.9 1014.7
09 19.04 ЮВ 1 50 км ясно +7.5 -14.3 20 +8 +20 опасность
простуды
1021.5 1012.3
12 19.04 С 1 50 км ясно +8.4 -14.3 18 +9 +13 по сезону 1019.7 1010.6
15 19.04 С 1 20 км ясно +4.9 -12.8 26 +5 +5 по сезону 1019.4 1010.2 +9.2
18 19.04 ЮВ 1 10 км ясно -1.8 -7.4 66 -4 -4 холодно 1019.7 1010.3
21 19.04 Ю 1 10 км ясно -2.2 -8.2 63 -4 -4 прохладно 1019.3 1009.8
00 20.04 Ю 2 10 км 3/0
[Ac trans]
-2.9 -8.1 67 -7 -7 прохладно 1019.0 1009.6
03 20.04 Ю 1 50 км 10/3 1000 м
[Sc Ac trans Ci fib]
+1.0 -6.7 56 -0 +1 по сезону 1019.1 1009.8 -3.4
06 20.04 СЗ 3 50 км 10/3 1000 м
[Sc Ac trans Ci fib]
+6.9 -7.3 36 +5 +8 по сезону 1018.8 1009.7

 

Местоположение метеостанции Курган (Курганская область, Россия): широта 55.45 долгота 65.40 высота над уровнем моря 72 м.

В архиве по умолчанию представлена погода в Кургане за последнюю неделю. Архивные данные за месяц целиком и за предыдущие месяцы, начиная с января 2011 года, Вы можете получить, выбрав интересующий диапазон дат из раскрывающегося списка и нажав кнопку "Ввод!".


*Определитесь, кто Вы:
робот инопланетянин человек

Внимание! Время в таблицах - всемирное. Для получения местного времени необходимо прибавить поправку, которая равна 5 ч.

Смотрите также архив погоды в соседних городах и на ближайших метеорологических станциях:

Погода в Памятном (Курганская область, Россия) (66 км)
Погода в Половинном (Курганская область, Россия) (85 км)
Погода в Куртамыше (Курганская область, Россия) (85 км)
Погода в Пресногорьковке (Костанайская область, Казахстан) (111 км)
Погода в Исетском (Тюменская область, Россия) (114 км)
Погода в Звериноголовском (Курганская область, Россия) (114 км)
Погода в Макушино (Курганская область, Россия) (122 км)
Погода в Шатрово (Курганская область, Россия) (128 км)
Погода в Шадринске (Курганская область, Россия) (129 км)
Погода в Шумихе (Курганская область, Россия) (134 км)

Пояснения к столбцам:

Ветер - указаны скорость ветра в м/с - средняя за 10 мин, порывы в срок и между сроками (в фигурных скобках) и направление, откуда дует ветер: С - северный, СВ - северо-восточный, В - восточный, ЮВ - юго-восточный, Ю - южный, ЮЗ - юго-западный, З - западный, СЗ - северо-западный.
Видимость - горизонтальная дальность видимости в метрах или километрах. При видимости от 1 до 10 км при отсутствии осадков обычно наблюдается дымка, при ухудшении видимости до 1 км и менее - туман. В сухую погоду видимость может ухудшаться дымом, пылью или мглою.
Явления - указаны атмосферные явления, наблюдавшиеся в срок или в последний час перед сроком; фигурными скобками обозначены явления, наблюдавшиеся между сроками (за 1-3 часа до срока); квадратными скобками обозначены град или гололедные отложения с указанием их диаметра в мм.
Облачность - указаны через наклонную черту общая и нижняя облачность в баллах и высота нижней границы облаков в метрах; квадратными скобками обозначены формы облаков: Ci - перистые, Cs - перисто-слоистые, Cc - перисто-кучевые, Ac - высококучевые, As - высокослоистые, Sc - слоисто-кучевые, Ns - слоисто-дождевые, Cu - кучевые, Cb - кучево-дождевые. Подробнее классификацию облаков см. в Атласе облаков (PDF).
T - Температура воздуха - температура, измеренная на высоте 2 м над землей.
Td - Температура точки росы - температура, при понижении до которой содержащийся в воздухе водяной пар достигнет насыщения.
f - Относительная влажность воздуха - влажноcть воздуха, измеренная на высоте 2 м над землей.
Te - Эффективная температура - температура, которую ощущает одетый по сезону человек в тени. Характеристика душности погоды. При расчете учитывается влияние влажности воздуха и скорости ветра на теплоощущения человека.
Tes - Эффективная температура на солнце - температура, которую ощущает человек, с поправкой на солнечный нагрев. Характеристика знойности погоды. Зависит от высоты солнца над горизонтом, облачности и скорости ветра. Ночью, в пасмурную погоду, а также при ветре 12 м/с и более поправка равна нулю.
P - Атмосферное давление - приведенное к уровню моря атмосферное давление.
Po - Атмосферное давление - измеренное на уровне метеостанции атмосферное давление.
Tmin - Минимальная температура - минимум температуры воздуха на высоте 2 м над землей.
Tmax - Максимальная температура - максимум температуры воздуха на высоте 2 м над землей.
R - Количество осадков - Количество выпавших осадков за период времени, мм. При наведении курсора мыши на число - период времени, за который выпало указанное количество осадков.
R24 - Количество осадков - Количество выпавших осадков за 24 часа, мм.
S - Снежный покров - Высота снежного покрова, см. При наведении курсора мыши на число - состояние снежного покрова и степень покрытия местности в баллах.